Brize Norton, United Kingdom

9:39 AM BST on September 25, 2017 (GMT +0100)
Brize Norton Air Base

Weather History for EGVN - December, 2013

Change the Weather History Date:

Monday, December 23, 2013

  Actual Average Record
Temperature  
Mean Temperature 45 °F -  
Max Temperature 53 °F 44 °F 55 °F (1997)
Min Temperature 37 °F 34 °F 26 °F (2001)
Degree Days  
Heating Degree Days 20    
Moisture  
Dew Point 45 °F    
Average Humidity 85    
Maximum Humidity 94    
Minimum Humidity 75    
Precipitation  
Precipitation 0.55 in - - ()
Sea Level Pressure  
Sea Level Pressure 29.30 in    
Wind  
Wind Speed 12 mph ()    
Max Wind Speed 29 mph    
Max Gust Speed 53 mph    
Visibility 5.2 miles    
Events Rain    
Averages and records for this station are not official NWS values.
T = Trace of Precipitation, MM = Missing Value Source: Averaged Metar Reports

Daily Weather History Graph

Daily Weather History Graph

Search for Another Location

Airport or City:

Trip Planner

Search our weather history database for the weather conditions in past years. The results will help you decide how hot, cold, wet, or windy it might be!

Date:

Astronomy

Dec. 23, 2013 Rise Set
Actual Time 8:11 AM GMT 3:59 PM GMT
Civil Twilight 7:31 AM GMT 4:39 PM GMT
Nautical Twilight 6:47 AM GMT 5:23 PM GMT
Astronomical Twilight 6:06 AM GMT 6:04 PM GMT
Moon 10:36 PM GMT (12/23) 10:52 AM GMT (12/23)
Length of Visible Light 9h 08m
Length of Day
7h 47m
Waning Gibbous, 70% of the Moon is Illuminated
Dec 23
Waning Gibbous
Dec 25
Last Quarter
Jan 1
New
Jan 8
First Quarter
Jan 16
Full

Hourly Weather History & Observations

Time (GMT) Temp. Windchill Dew Point Humidity Pressure Visibility Wind Dir Wind Speed Gust Speed Precip Events Conditions
12:00 AM 38 °F - 35 °F 85% 29.90 in 22 mi SW 4.6 mph - -   Scattered Clouds
12:50 AM 39.2 °F 35.9 °F 35.6 °F 87% 29.86 in 6.2 mi SW 4.6 mph - N/A   Mostly Cloudy
1:00 AM 38 °F - 35 °F 83% 29.88 in 22 mi SW 4.6 mph - -   Scattered Clouds
1:50 AM 39.2 °F 34.2 °F 35.6 °F 87% 29.83 in 6.2 mi SSW 6.9 mph - N/A   Scattered Clouds
2:50 AM 41.0 °F 37.1 °F 35.6 °F 81% 29.83 in 6.2 mi SSW 5.8 mph - N/A   Mostly Cloudy
3:00 AM 40 °F - 35 °F 77% 29.85 in 19 mi SSW 5.8 mph - -   Mostly Cloudy
3:50 AM 41.0 °F 35.8 °F 37.4 °F 87% 29.80 in 6.2 mi SSW 8.1 mph - N/A   Mostly Cloudy
4:00 AM 42 °F - 37 °F 75% 29.81 in 19 mi SSW 8.1 mph - -   Partly Cloudy
4:50 AM 41.0 °F 35.2 °F 37.4 °F 87% 29.74 in - South 9.2 mph - N/A   Clear
5:00 AM 41 °F - 37 °F 79% 29.78 in 22 mi South 9.2 mph - -   Scattered Clouds
5:50 AM 41.0 °F 35.8 °F 37.4 °F 87% 29.71 in 6.2 mi South 8.1 mph - N/A   Mostly Cloudy
6:00 AM 41 °F - 37 °F 81% 29.74 in 22 mi South 8.1 mph - -   Scattered Clouds
6:50 AM 42.8 °F 37.5 °F 39.2 °F 87% 29.65 in 6.2 mi South 9.2 mph - N/A   Mostly Cloudy
7:00 AM 44 °F - 40 °F 79% 29.68 in 22 mi South 9.2 mph - -   Partly Cloudy
7:50 AM 46.4 °F 41.1 °F 42.8 °F 87% 29.59 in 6.2 mi South 11.5 mph - N/A Rain Light Rain
8:00 AM 46 °F - 42 °F 83% 29.62 in 6 mi South 11.5 mph - - Rain Light Rain
8:50 AM 48.2 °F - 42.8 °F 82% 29.53 in 6.2 mi South 16.1 mph 29.9 mph N/A Rain Light Rain
9:00 AM 48 °F - 44 °F 79% 29.55 in 6 mi South 16.1 mph - - Rain Light Rain
9:50 AM 50.0 °F - 44.6 °F 82% 29.47 in 6.2 mi South 19.6 mph 31.1 mph N/A Rain Light Rain
10:00 AM 49 °F - 45 °F 79% 29.49 in 9 mi South 19.6 mph - - Rain Light Rain
10:50 AM 50.0 °F - 44.6 °F 82% 29.39 in 3.7 mi South 24.2 mph 36.8 mph N/A Rain Rain
11:00 AM 50 °F - 45 °F 78% 29.42 in 4 mi South 24.2 mph - - Rain Rain
11:50 AM 50.0 °F - 46.4 °F 87% 29.33 in 4.3 mi South 25.3 mph 40.3 mph N/A Rain Rain
12:00 PM 50 °F - 46 °F 80% 29.33 in 4 mi South 25.3 mph - - Rain Rain
12:50 PM 50.0 °F - 46.4 °F 87% 29.21 in 4.3 mi South 26.5 mph 43.7 mph N/A Rain Rain
1:00 PM 51 °F - 47 °F 81% 29.24 in 4 mi South 26.5 mph - - Rain Rain
1:50 PM 51.8 °F - 48.2 °F 88% 29.15 in 4.3 mi South 24.2 mph 47.2 mph N/A Rain Rain
2:00 PM 51 °F - 47 °F 83% 29.16 in 4 mi South 24.2 mph - - Rain Rain
2:32 PM 51.8 °F - 48.2 °F 88% 29.12 in 2.5 mi South 25.3 mph 40.3 mph N/A Rain Rain
2:50 PM 51.8 °F - 48.2 °F 88% 29.09 in 2.5 mi South 25.3 mph 36.8 mph N/A Rain Rain
3:00 PM 52 °F - 49 °F 84% 29.11 in 2 mi South 25.3 mph - - Rain Rain
3:45 PM 51.8 °F - 50.0 °F 94% 29.12 in 1.6 mi SSW 21.9 mph 40.3 mph N/A Rain Heavy Rain
3:50 PM 50.0 °F - 46.4 °F 87% 29.09 in 1.6 mi SW 18.4 mph 40.3 mph N/A Rain Heavy Rain
4:00 PM 50 °F - 47 °F 84% 29.11 in 2 mi SW 18.4 mph - - Rain Heavy Rain
4:04 PM 51.8 °F - 48.2 °F 88% 29.09 in 3.7 mi SSW 12.7 mph 26.5 mph N/A Rain Rain
4:50 PM 51.8 °F - 48.2 °F 88% 29.06 in 6.2 mi SSW 15.0 mph - N/A Rain Light Rain
5:00 PM 51 °F - 47 °F 83% 29.08 in 9 mi SSW 15.0 mph - - Rain Light Rain
5:50 PM 51.8 °F - 48.2 °F 88% 29.03 in 6.2 mi SSW 17.3 mph 28.8 mph N/A Rain Rain
6:00 PM 52 °F - 49 °F 84% 29.05 in 6 mi SSW 17.3 mph - - Rain Rain
6:33 PM 51.8 °F - 48.2 °F 88% 29.03 in 3.1 mi SSW 15.0 mph 27.6 mph N/A Rain Rain
6:50 PM 51.8 °F - 50.0 °F 94% 29.00 in 4.3 mi SSW 20.7 mph 33.4 mph N/A Rain Rain
7:00 PM 53 °F - 49 °F 82% 29.02 in 4 mi SSW 20.7 mph - - Rain Rain
7:50 PM 53.6 °F - 50.0 °F 88% 28.97 in 4.3 mi SSW 16.1 mph 27.6 mph N/A Rain Light Rain
8:00 PM 53 °F - 49 °F 82% 28.97 in 4 mi SSW 16.1 mph - - Rain Light Rain
8:25 PM 51.8 °F - 50.0 °F 94% 28.91 in 6.2 mi South 17.3 mph 28.8 mph N/A Rain Light Rain
8:50 PM 51.8 °F - 50.0 °F 94% 28.88 in 6.2 mi South 16.1 mph 27.6 mph N/A Rain Light Rain
9:00 PM 52 °F - 49 °F 86% 28.91 in 6 mi South 16.1 mph - - Rain Light Rain
9:36 PM 51.8 °F - 50.0 °F 94% 28.82 in 2.5 mi South 13.8 mph - N/A Rain Rain
9:50 PM 51.8 °F - 50.0 °F 94% 28.82 in - South 18.4 mph 29.9 mph N/A Rain Rain
10:00 PM 52 °F - 50 °F 91% 28.83 in 2 mi South 18.4 mph - - Rain Rain
10:50 PM 53.6 °F - 50.0 °F 88% 28.74 in 2.5 mi South 26.5 mph 40.3 mph N/A Rain Rain
11:00 PM 53 °F - 50 °F 87% 28.76 in 2 mi South 26.5 mph - - Rain Rain
11:50 PM 53.6 °F - 50.0 °F 88% 28.71 in 2.5 mi South 28.8 mph 52.9 mph N/A Rain Rain